FW6987 Weather Reports


time (UTC)temp
F
wind
direction
speed
knots
gust
knots
rain 1hr
in
rain 24hr
in
rain mn
in
humidity
%
barometer
mb
20260903144601 69 222 0.0 3.5 0.00 0.60 0.25 98 1005.2
20260903143107 69 0 0.0 2.6 0.00 0.60 0.25 98 1005.3
20260903141611 68 0 0.0 1.7 0.00 0.60 0.25 98 1005.2
20260903140115 68 226 0.9 3.5 0.00 0.60 0.25 98 1005.2
20260903134559 68 0 0.0 0.9 0.00 0.60 0.25 98 1005.1
20260903133057 67 0 0.0 0.9 0.00 0.60 0.25 98 1005.2
20260903131612 66 0 0.0 0.0 0.00 0.60 0.25 98 1005.4
20260903130059 66 0 0.0 0.0 0.00 0.60 0.25 98 1005.3
20260903124559 66 0 0.0 0.0 0.00 0.60 0.25 98 1005.3
20260903123106 66 0 0.0 0.0 0.00 0.60 0.25 98 1005.7
20260903121623 65 0 0.0 0.0 0.00 0.60 0.25 98 1005.7
20260903120059 65 0 0.0 0.0 0.00 0.60 0.25 98 1005.7
20260903114557 65 0 0.0 0.9 0.00 0.61 0.25 97 1005.5
20260903113055 64 0 0.0 2.6 0.00 0.61 0.25 98 1005.5
20260903111555 64 164 0.0 0.9 0.00 0.61 0.25 97 1005.7
20260903110058 64 0 0.0 0.9 0.00 0.61 0.25 97 1005.9
20260903104603 64 164 0.0 1.7 0.00 0.62 0.25 97 1006.0
20260903103057 64 0 0.0 1.7 0.00 0.62 0.25 97 1006.0
20260903101602 64 0 0.0 1.7 0.00 0.62 0.25 97 1005.8
20260903100059 64 0 0.0 1.7 0.00 0.62 0.25 97 1005.6
20260903094608 64 0 0.0 1.7 0.00 0.62 0.25 97 1005.9
20260903093106 64 0 0.0 0.9 0.00 0.62 0.25 97 1005.6
20260903091602 64 0 0.0 0.0 0.00 0.62 0.25 97 1005.4
20260903090107 64 0 0.0 0.9 0.00 0.62 0.25 97 1005.8
20260903084605 64 0 0.0 0.9 0.01 0.62 0.25 97 1005.9
20260903083059 64 0 0.0 0.0 0.02 0.62 0.25 97 1005.9
20260903081555 64 0 0.0 1.7 0.03 0.62 0.25 97 1006.0
20260903080058 64 208 0.0 0.9 0.03 0.62 0.25 97 1005.8
20260903074559 64 0 0.0 1.7 0.03 0.62 0.24 97 1005.8
20260903073059 64 0 0.0 2.6 0.02 0.61 0.23 97 1005.9
20260903071557 64 0 0.0 1.7 0.01 0.60 0.22 97 1006.0
20260903070101 64 0 0.0 1.7 0.02 0.60 0.22 97 1005.8
20260903064601 64 12 0.0 2.6 0.01 0.58 0.21 97 1006.5
20260903063103 64 0 0.0 0.0 0.02 0.58 0.21 97 1006.5
20260903061601 64 0 0.0 0.0 0.03 0.58 0.21 97 1006.6
20260903060122 64 0 0.0 0.0 0.03 0.58 0.20 97 1006.7
20260903054602 64 0 0.0 0.9 0.06 0.58 0.20 97 1007.1
20260903053105 64 0 0.0 2.6 0.08 0.57 0.19 97 1007.9
20260903051605 64 0 0.0 2.6 0.11 0.56 0.18 97 1008.2
20260903050104 64 0 0.0 0.0 0.17 0.55 0.17 97 1007.8
20260903044557 64 0 0.0 2.6 0.23 0.52 0.14 97 1008.0
20260903043104 64 0 0.9 2.6 0.20 0.49 0.11 97 1008.3
20260903041603 64 0 0.0 1.7 0.16 0.45 0.07 97 1008.8
20260903034600 63 250 3.5 7.8 0.00 0.29 0.29 97 1010.1
20260903033059 63 0 0.0 0.0 0.00 0.29 0.29 97 1009.2
20260903031558 63 0 0.0 0.0 0.00 0.29 0.29 97 1009.1
20260903030055 63 0 0.0 0.0 0.00 0.29 0.29 97 1009.2
20260903024602 63 0 0.0 0.0 0.00 0.29 0.29 97 1008.8
20260903023057 63 0 0.0 0.0 0.00 0.29 0.29 97 1009.0
20260903021556 63 0 0.0 0.0 0.00 0.29 0.29 97 1009.7
20260903020057 64 0 0.0 0.0 0.00 0.29 0.29 97 1010.2
20260903014624 64 0 0.0 0.0 0.00 0.29 0.29 97 1010.3
20260903013102 64 0 0.0 0.0 0.00 0.29 0.29 97 1009.9
20260903011608 64 0 0.0 0.0 0.00 0.29 0.29 97 1009.6
20260903010054 64 0 0.0 0.0 0.00 0.29 0.29 97 1009.8
20260903004600 64 0 0.0 0.0 0.00 0.29 0.29 96 1010.2
20260903003059 64 0 0.0 0.0 0.00 0.29 0.29 96 1009.6
20260903001556 64 0 0.0 0.0 0.00 0.29 0.29 97 1009.5
20260903000100 64 0 0.0 0.0 0.00 0.29 0.29 97 1009.8
20260902234601 64 0 0.0 0.0 0.00 0.29 0.29 97 1009.7
20260902233057 64 0 0.0 0.0 0.00 0.29 0.29 97 1009.8
20260902231602 64 0 0.0 1.7 0.01 0.29 0.29 97 1009.7
20260902230107 64 0 0.0 0.0 0.01 0.29 0.29 96 1009.8
20260902224607 64 0 0.0 0.0 0.01 0.29 0.29 96 1010.0
20260902223106 64 0 0.0 0.0 0.01 0.29 0.29 96 1010.1
20260902221556 65 0 0.0 0.0 0.00 0.28 0.28 96 1010.6
20260902220109 65 0 0.0 0.0 0.00 0.28 0.28 97 1010.4
20260902214607 65 0 0.0 0.0 0.00 0.28 0.28 97 1010.7
20260902213100 65 0 0.0 0.0 0.00 0.28 0.28 97 1010.6
20260902211555 65 0 0.0 0.0 0.00 0.28 0.28 97 1010.6
20260902210056 65 0 0.0 0.0 0.00 0.28 0.28 97 1010.4
20260902204600 65 0 0.0 0.0 0.00 0.28 0.28 97 1010.5
20260902203100 65 0 0.0 0.0 0.00 0.28 0.28 97 1010.6
20260902201604 65 0 0.0 0.0 0.00 0.28 0.28 97 1010.3
20260902200058 64 0 0.0 0.0 0.00 0.28 0.28 97 1010.4
20260902194557 64 0 0.0 0.0 0.00 0.28 0.28 97 1010.6
20260902193054 64 0 0.0 0.0 0.00 0.28 0.28 97 1010.8
20260902191559 64 0 0.0 0.0 0.01 0.28 0.28 97 1010.9
20260902190058 63 0 0.0 0.0 0.04 0.28 0.28 97 1011.1
20260902184556 63 0 0.0 0.0 0.08 0.28 0.28 97 1011.3
20260902183107 62 0 0.0 0.0 0.11 0.28 0.28 97 1011.4
20260902181600 62 0 0.0 0.0 0.21 0.27 0.27 97 1011.5
20260902180058 62 0 0.0 0.0 0.20 0.24 0.24 96 1011.6
20260902174602 62 0 0.0 0.0 0.16 0.20 0.20 96 1012.2
20260902173126 62 0 0.0 0.0 0.13 0.17 0.17 96 1012.2
20260902171609 62 0 0.0 3.5 0.01 0.05 0.05 96 1012.4
20260902164601 62 0 0.0 0.0 0.00 0.04 0.04 96 1011.8
20260902163107 62 0 0.0 0.0 0.00 0.04 0.04 96 1012.1
20260902161557 62 0 0.0 1.7 0.00 0.04 0.04 96 1012.3
20260902160105 62 0 0.0 0.0 0.00 0.04 0.04 97 1012.1
20260902154554 62 0 0.0 0.0 0.00 0.04 0.04 97 1011.8
20260902153057 62 0 0.0 0.9 0.00 0.04 0.04 97 1011.7
20260902151601 62 0 0.0 0.0 0.00 0.04 0.04 96 1011.8
20260902150054 62 0 0.0 0.0 0.01 0.04 0.04 96 1011.9